Le nostre stazioni meteo in Italia

Pubblicità
Il mio iltempo24.it
Matera, Italia (16314): Temperatura & dewpoint: 13.04.2019 17:00:00 - 19.04.2019 17:00:00 (CEST)Matera, Italia (16314): velocità del vento: 13.04.2019 17:00:00 - 19.04.2019 17:00:00 (CEST)Matera, Italia (16314): direzione del vento: 13.04.2019 17:00:00 - 19.04.2019 17:00:00 (CEST)Matera, Italia (16314): reduced air pressure: 13.04.2019 17:00:00 - 19.04.2019 17:00:00 (CEST)
Data & Tempo tt [°C] td [°C] ff [km/h] ff [kn] dd ppp [hPa]
19.04.2019 17:00:00 - - - - - -
19.04.2019 16:00:00 17,0 3,6 26 14 ENE 1027,3
19.04.2019 15:00:00 16,5 4,4 18 10 E 1027,7
19.04.2019 14:00:00 16,0 3,3 24 13 E 1028,1
19.04.2019 13:00:00 16,5 5,1 16 9 E 1028,3
19.04.2019 12:00:00 16,4 6,7 13 7 ENE 1028,4
19.04.2019 11:00:00 15,0 7,7 18 10 ENE 1028,7
19.04.2019 10:00:00 13,2 8,8 21 11 NNE 1028,9
19.04.2019 09:00:00 11,3 6,0 18 10 NE 1028,8
19.04.2019 08:00:00 10,1 5,2 15 8 NNE 1028,8
19.04.2019 07:00:00 8,1 3,5 16 9 NNE 1029,0
19.04.2019 06:00:00 8,1 3,5 15 8 NNE 1028,6
19.04.2019 05:00:00 8,3 3,7 15 8 NNE 1028,4
19.04.2019 04:00:00 8,7 5,0 13 7 NNE 1028,2
19.04.2019 03:00:00 8,6 5,3 13 7 NNE 1028,2
19.04.2019 02:00:00 9,1 5,2 21 11 NE 1028,2
19.04.2019 01:00:00 9,2 5,9 18 10 ENE 1028,1
19.04.2019 00:00:00 9,2 5,1 13 7 NE 1027,8
18.04.2019 23:00:00 9,1 4,9 13 7 NE 1027,8
18.04.2019 22:00:00 9,2 6,1 13 7 NNE 1027,7
18.04.2019 21:00:00 9,7 6,0 11 6 NNE 1027,0
18.04.2019 20:00:00 11,0 6,1 16 9 NE 1025,8
18.04.2019 19:00:00 14,0 6,3 16 9 ENE 1024,4
18.04.2019 18:00:00 15,6 3,6 21 11 ENE 1023,8
18.04.2019 17:00:00 16,2 4,5 24 13 ENE 1023,4
18.04.2019 16:00:00 16,5 6,3 31 17 NE 1023,0
18.04.2019 15:00:00 16,6 6,1 41 22 ENE 1022,9
18.04.2019 14:00:00 16,5 7,6 31 17 NE 1023,0
18.04.2019 13:00:00 16,3 7,4 24 13 ENE 1022,8
18.04.2019 12:00:00 15,5 7,2 31 17 NE 1023,0
18.04.2019 11:00:00 14,5 6,0 28 15 NNE 1023,2
18.04.2019 10:00:00 12,7 7,3 26 14 NNE 1023,4
18.04.2019 09:00:00 10,9 4,3 29 16 N 1023,6
18.04.2019 08:00:00 9,6 2,1 28 15 NNE 1023,6
18.04.2019 07:00:00 8,2 1,5 21 11 N 1023,4
18.04.2019 06:00:00 7,6 2,0 22 12 N 1023,3
18.04.2019 05:00:00 7,9 2,1 22 12 N 1023,2
18.04.2019 04:00:00 8,0 2,0 22 12 N 1023,1
18.04.2019 03:00:00 8,5 1,8 22 12 N 1023,1
18.04.2019 02:00:00 8,1 1,8 18 10 N 1023,5
18.04.2019 01:00:00 - - - - - -
18.04.2019 00:00:00 - - - - - -
17.04.2019 23:00:00 9,3 3,8 15 8 NNE 1023,3
17.04.2019 22:00:00 - - - - - -
17.04.2019 21:00:00 - - - - - -
17.04.2019 20:00:00 12,5 3,6 0 0 N 1021,0
17.04.2019 19:00:00 - - - - - -
17.04.2019 18:00:00 15,6 5,1 16 9 ENE 1020,2
17.04.2019 17:00:00 16,2 6,3 15 8 ENE 1019,9
17.04.2019 16:00:00 16,6 7,7 15 8 ENE 1019,8
17.04.2019 15:00:00 16,9 6,6 16 9 NNE 1019,6
17.04.2019 14:00:00 16,9 6,9 28 15 NNE 1020,0
17.04.2019 13:00:00 15,4 7,1 9 5 NNE 1020,7
17.04.2019 12:00:00 15,6 6,2 15 8 NNE 1021,1
17.04.2019 11:00:00 14,4 8,1 16 9 NE 1021,2
17.04.2019 10:00:00 12,8 8,4 13 7 NNE 1021,3
17.04.2019 09:00:00 11,2 7,3 0 0 N 1021,3
17.04.2019 08:00:00 9,6 7,0 13 7 NE 1021,4
17.04.2019 07:00:00 8,3 5,7 21 11 NNE 1021,5
17.04.2019 06:00:00 8,5 6,1 15 8 NNE 1021,2
17.04.2019 05:00:00 8,9 6,3 13 7 NNE 1021,0
17.04.2019 04:00:00 9,5 7,1 13 7 N 1021,0
17.04.2019 03:00:00 9,5 7,6 15 8 N 1021,3
17.04.2019 02:00:00 9,9 8,0 13 7 NNE 1021,7
17.04.2019 01:00:00 10,6 9,0 13 7 NNE 1021,7
17.04.2019 00:00:00 10,2 8,8 15 8 N 1022,0
16.04.2019 23:00:00 9,3 7,9 18 10 NO 1022,3
16.04.2019 22:00:00 9,8 7,9 16 9 NO 1022,5
16.04.2019 21:00:00 10,5 8,2 11 6 O 1022,3
16.04.2019 20:00:00 11,8 9,2 9 5 S 1021,5
16.04.2019 19:00:00 13,1 8,3 15 8 E 1020,5
16.04.2019 18:00:00 14,9 8,1 24 13 E 1019,9
16.04.2019 17:00:00 16,2 7,9 24 13 E 1019,4
16.04.2019 16:00:00 16,5 6,8 15 8 ENE 1019,3
16.04.2019 15:00:00 17,0 6,7 21 11 NE 1019,4
16.04.2019 14:00:00 17,0 7,3 28 15 NNE 1020,1
16.04.2019 13:00:00 16,2 6,5 18 10 NNE 1020,4
16.04.2019 12:00:00 15,6 8,5 16 9 NNE 1020,3
16.04.2019 11:00:00 14,1 8,2 16 9 NNE 1020,7
16.04.2019 10:00:00 12,2 7,5 26 14 NNE 1020,9
16.04.2019 09:00:00 10,1 6,0 24 13 N 1021,1
16.04.2019 08:00:00 8,8 4,9 26 14 N 1021,1
16.04.2019 07:00:00 7,7 4,8 28 15 N 1020,8
16.04.2019 06:00:00 6,7 4,2 21 11 N 1020,6
16.04.2019 05:00:00 7,2 4,3 28 15 N 1020,2
16.04.2019 04:00:00 7,1 4,9 26 14 N 1020,4
16.04.2019 03:00:00 7,2 6,6 28 15 N 1020,4
16.04.2019 02:00:00 7,3 7,3 18 10 N 1020,5
16.04.2019 01:00:00 7,7 7,7 24 13 N 1020,6
16.04.2019 00:00:00 7,7 7,1 18 10 N 1020,5
15.04.2019 23:00:00 8,0 7,2 22 12 NNE 1020,3
15.04.2019 22:00:00 8,6 6,4 18 10 NE 1019,7
15.04.2019 21:00:00 8,8 7,4 21 11 NE 1019,0
15.04.2019 20:00:00 9,5 7,6 24 13 NE 1018,1
15.04.2019 19:00:00 11,7 8,3 28 15 ENE 1016,6
15.04.2019 18:00:00 13,0 8,6 35 19 ENE 1015,8
15.04.2019 17:00:00 13,0 8,2 24 13 ENE 1015,0
15.04.2019 16:00:00 13,1 7,7 35 19 E 1014,6
15.04.2019 15:00:00 11,8 8,0 28 15 E 1014,7
15.04.2019 14:00:00 11,7 9,2 28 15 ENE 1014,3
15.04.2019 13:00:00 11,2 9,9 28 15 ENE 1014,1
15.04.2019 12:00:00 9,8 9,0 13 7 ENE 1014,5
15.04.2019 11:00:00 9,1 8,6 22 12 NNE 1014,2
15.04.2019 10:00:00 8,7 8,7 21 11 NNE 1013,8
15.04.2019 09:00:00 7,4 7,4 28 15 NNE 1013,7
15.04.2019 08:00:00 7,1 7,1 21 11 NE 1013,5
15.04.2019 07:00:00 6,7 6,6 15 8 NE 1013,3
15.04.2019 06:00:00 6,3 5,9 13 7 NNE 1013,0
15.04.2019 05:00:00 6,2 6,1 9 5 E 1012,3
15.04.2019 04:00:00 6,8 6,7 13 7 NNE 1012,8
15.04.2019 03:00:00 6,9 6,6 16 9 NE 1013,2
15.04.2019 02:00:00 7,1 7,1 16 9 ENE 1013,5
15.04.2019 01:00:00 7,0 6,6 24 13 E 1013,9
15.04.2019 00:00:00 7,6 6,8 0 0 N 1014,7
14.04.2019 23:00:00 8,0 7,5 9 5 N 1014,2
14.04.2019 22:00:00 8,8 8,2 21 11 NNE 1014,1
14.04.2019 21:00:00 9,8 8,1 0 0 N 1013,3
14.04.2019 20:00:00 9,5 8,6 4 2 E 1012,9
14.04.2019 19:00:00 10,0 8,2 2 1 NNO 1012,9
14.04.2019 18:00:00 9,7 8,9 9 5 O 1012,9
14.04.2019 17:00:00 10,7 8,8 21 11 SO 1012,9
14.04.2019 16:00:00 13,0 7,6 21 11 OSO 1012,0
14.04.2019 15:00:00 13,3 7,5 0 0 N 1012,2
14.04.2019 14:00:00 14,3 7,5 0 0 N 1012,1
14.04.2019 13:00:00 13,8 7,9 2 1 NE 1012,5
14.04.2019 12:00:00 12,6 8,0 15 8 NNE 1013,0
14.04.2019 11:00:00 12,0 9,2 16 9 NE 1013,3
14.04.2019 10:00:00 10,4 8,1 28 15 NE 1013,4
14.04.2019 09:00:00 8,6 8,6 21 11 NNE 1013,4
14.04.2019 08:00:00 7,2 7,2 24 13 NNE 1013,7
14.04.2019 07:00:00 6,3 6,3 21 11 NNE 1013,8
14.04.2019 06:00:00 6,3 6,3 29 16 NNE 1013,2
14.04.2019 05:00:00 6,9 6,9 28 15 NNE 1013,4
14.04.2019 04:00:00 7,3 7,3 31 17 NNE 1013,5
14.04.2019 03:00:00 7,3 7,3 16 9 NNE 1013,7
14.04.2019 02:00:00 7,6 7,6 21 11 N 1013,8
14.04.2019 01:00:00 7,9 7,9 22 12 NNE 1014,3
14.04.2019 00:00:00 7,7 7,7 16 9 NNE 1014,4
13.04.2019 23:00:00 8,0 8,0 16 9 N 1014,3
13.04.2019 22:00:00 8,3 8,3 18 10 NNE 1014,3
13.04.2019 21:00:00 8,8 8,5 0 0 N 1014,2
13.04.2019 20:00:00 9,2 8,4 16 9 ENE 1013,7
13.04.2019 19:00:00 10,0 8,6 13 7 NE 1013,3
13.04.2019 18:00:00 10,1 8,3 16 9 NE 1013,2
13.04.2019 17:00:00 10,2 7,9 15 8 ENE 1013,1

tt = Temperatura
td = dewpoint
ff = velocità del vento
dd = direzione del vento
ppp = reduced air pressure

Stazioni seguenti

WeatherPro
AMSI
MeteoEarth